TimeCDT,TemperatureF,Dew PointF,Humidity,Sea Level PressureIn,VisibilityMPH,Wind Direction,Wind SpeedMPH,Gust SpeedMPH,PrecipitationIn,Events,Conditions,WindDirDegrees,DateUTC
12:15 AM,57.2,42.8,59,30.18,10.0,South,5.8,-,N/A,,Overcast,170,2013-03-29 05:15:00
12:35 AM,57.2,42.8,59,30.17,10.0,SSE,5.8,-,N/A,,Overcast,160,2013-03-29 05:35:00
12:55 AM,57.2,42.8,59,30.16,10.0,South,6.9,-,N/A,,Mostly Cloudy,170,2013-03-29 05:55:00
1:15 AM,57.2,42.8,59,30.17,10.0,South,5.8,-,N/A,,Mostly Cloudy,170,2013-03-29 06:15:00
1:35 AM,55.4,44.6,67,30.17,10.0,South,3.5,-,N/A,,Scattered Clouds,170,2013-03-29 06:35:00
1:55 AM,55.4,44.6,67,30.17,10.0,South,5.8,-,N/A,,Mostly Cloudy,170,2013-03-29 06:55:00
2:35 AM,55.4,44.6,67,30.16,10.0,South,3.5,-,N/A,,Overcast,180,2013-03-29 07:35:00
2:55 AM,55.4,44.6,67,30.16,10.0,Calm,Calm,-,N/A,,Mostly Cloudy,0,2013-03-29 07:55:00
3:15 AM,55.4,44.6,67,30.15,10.0,SSW,3.5,-,N/A,,Partly Cloudy,200,2013-03-29 08:15:00
3:35 AM,55.4,44.6,67,30.15,10.0,SSW,3.5,-,N/A,,Scattered Clouds,200,2013-03-29 08:35:00
3:55 AM,57.2,46.4,67,30.14,10.0,Calm,Calm,-,N/A,,Mostly Cloudy,0,2013-03-29 08:55:00
4:15 AM,53.6,46.4,77,30.15,10.0,Calm,Calm,-,N/A,,Overcast,0,2013-03-29 09:15:00
4:35 AM,50.0,44.6,82,30.15,10.0,Calm,Calm,-,N/A,,Overcast,0,2013-03-29 09:35:00
4:55 AM,50.0,46.4,87,30.14,9.0,Calm,Calm,-,N/A,Rain,Light Rain,0,2013-03-29 09:55:00
5:15 AM,51.8,44.6,76,30.14,9.0,Calm,Calm,-,N/A,,Overcast,0,2013-03-29 10:15:00
5:35 AM,50.0,46.4,87,30.15,10.0,North,11.5,16.1,N/A,,Mostly Cloudy,10,2013-03-29 10:35:00
5:55 AM,50.0,44.6,82,30.16,10.0,North,6.9,-,N/A,,Overcast,350,2013-03-29 10:55:00
6:15 AM,48.2,44.6,87,30.17,8.0,North,3.5,-,N/A,Rain,Light Rain,10,2013-03-29 11:15:00
6:35 AM,50.0,46.4,87,30.18,7.0,NE,4.6,-,N/A,Rain,Light Rain,40,2013-03-29 11:35:00
6:50 AM,50.0,46.4,87,30.18,5.0,NE,3.5,-,N/A,Rain,Light Rain,40,2013-03-29 11:50:00
7:50 AM,48.2,48.2,100,30.20,4.0,ENE,4.6,-,N/A,Rain,Light Rain,70,2013-03-29 12:50:00
8:45 AM,48.2,48.2,100,30.22,2.0,Calm,Calm,-,N/A,Rain,Light Rain,0,2013-03-29 13:45:00
9:55 AM,48.2,48.2,100,30.21,3.0,SSE,6.9,-,N/A,Rain,Light Rain,150,2013-03-29 14:55:00
10:45 AM,50.0,50.0,100,30.21,5.0,SSE,4.6,-,N/A,Rain,Light Rain,160,2013-03-29 15:45:00
11:45 AM,53.6,50.0,88,30.20,10.0,SE,4.6,-,N/A,,Mostly Cloudy,140,2013-03-29 16:45:00
12:50 PM,57.2,51.8,82,30.19,10.0,East,8.1,-,N/A,,Mostly Cloudy,100,2013-03-29 17:50:00
1:55 PM,59.0,50.0,72,30.19,10.0,SE,5.8,-,N/A,,Mostly Cloudy,130,2013-03-29 18:55:00
2:45 PM,60.8,50.0,68,30.16,10.0,ESE,4.6,-,N/A,,Scattered Clouds,110,2013-03-29 19:45:00
3:45 PM,62.6,48.2,59,30.15,10.0,East,8.1,-,N/A,,Scattered Clouds,100,2013-03-29 20:45:00
4:45 PM,64.4,46.4,52,30.14,10.0,ESE,8.1,-,N/A,,Mostly Cloudy,120,2013-03-29 21:45:00
5:45 PM,62.6,46.4,55,30.15,10.0,East,5.8,-,N/A,,Mostly Cloudy,100,2013-03-29 22:45:00
6:55 PM,62.6,48.2,59,30.15,10.0,ESE,6.9,-,N/A,,Mostly Cloudy,110,2013-03-29 23:55:00
7:55 PM,59.0,46.4,63,30.14,10.0,ESE,6.9,-,N/A,,Overcast,110,2013-03-30 00:55:00
8:45 PM,59.0,46.4,63,30.15,10.0,ESE,6.9,-,N/A,,Overcast,120,2013-03-30 01:45:00
9:15 PM,57.2,46.4,67,30.15,10.0,ESE,8.1,-,N/A,,Overcast,120,2013-03-30 02:15:00
9:35 PM,57.2,46.4,67,30.15,10.0,ESE,6.9,-,N/A,,Overcast,120,2013-03-30 02:35:00
9:55 PM,57.2,46.4,67,30.16,10.0,ESE,6.9,-,N/A,,Overcast,110,2013-03-30 02:55:00
10:15 PM,57.2,46.4,67,30.16,10.0,East,6.9,-,N/A,,Overcast,100,2013-03-30 03:15:00
10:35 PM,57.2,48.2,72,30.16,10.0,SE,9.2,-,N/A,,Overcast,140,2013-03-30 03:35:00
10:55 PM,55.4,46.4,72,30.16,10.0,ESE,8.1,-,N/A,,Overcast,120,2013-03-30 03:55:00
11:15 PM,55.4,46.4,72,30.16,10.0,SE,9.2,-,N/A,,Overcast,140,2013-03-30 04:15:00
11:35 PM,55.4,46.4,72,30.16,10.0,SE,10.4,-,N/A,,Overcast,140,2013-03-30 04:35:00
11:55 PM,55.4,48.2,77,30.15,10.0,SE,10.4,-,N/A,,Overcast,130,2013-03-30 04:55:00